This demonstration page uses our WeatherBlox Daily Observations layout. Learn more.

Left ArrowRight Arrow

47.50024, -111.30081

Hourly Observations for May 25, 2021

Temp ( °F °C ) Dew Point ( °F °C ) Humidity (%) Winds ( mph kmh ) Pressure ( in mb ) Visibility ( mi km ) Precip ( " mm )
12:53 am 00:53 Cloudy 47 8.3 40 4.4 77 77 WNW 13 20 29.93 1014 10 16 0.00 0.00
1:53 am 01:53 Cloudy 46 7.8 40 4.4 79 79 WNW 12 19 29.95 1014 10 16 0.00 0.00
2:53 am 02:53 Cloudy 45 7.2 41 5 86 86 WNW 14 22 29.97 1015 10 16 0.00 0.00
3:53 am 03:53 Cloudy with Light Rain 45 7.2 40 4.4 83 83 WNW 13 20 29.99 1016 10 16 0.00 0.00
4:53 am 04:53 Cloudy with Light Rain 44 6.7 41 5 89 89 NW 14 22 30.01 1016 10 16 0.00 0.00
5:53 am 05:53 Cloudy with Light Rain 44 6.7 40 4.4 85 85 W 7 11 30.03 1017 10 16 0.02 0.51
6:53 am 06:53 Cloudy with Light Rain 44 6.7 41 5 89 89 W 8 13 30.05 1018 10 16 0.01 0.25
7:53 am 07:53 Cloudy with Light Rain 45 7.2 41 5 86 86 W 9 15 30.09 1019 10 16 0.00 0.00
8:53 am 08:53 Cloudy with Light Rain 46 7.8 43 6.1 89 89 SW 8 13 30.11 1020 10 16 0.01 0.25
9:53 am 09:53 Cloudy 47 8.3 44 6.7 90 90 SW 9 15 30.12 1020 10 16 0.01 0.25
10:53 am 10:53 Cloudy 49 9.4 43 6.1 80 80 WSW 8 13 30.12 1020 10 16 0.00 0.00
11:53 am 11:53 Cloudy 51 10.6 43 6.1 74 74 Calm 30.12 1020 10 16 0.00 0.00
12:02 pm 12:02 Cloudy 51 10.6 42 5.6 71 71 SW 5 7 30.06 1018 10 16 0.00 0.00
12:28 pm 12:28 Cloudy 53 11.7 42 5.6 66 66 Calm 30.04 1017 10 16 0.00 0.00
12:53 pm 12:53 Cloudy 53 11.7 42 5.6 66 66 W 6 9 30.11 1020 10 16 0.00 0.00
1:53 pm 13:53 Cloudy 58 14.4 43 6.1 58 58 VRB 5 7 30.09 1019 10 16 0.00 0.00
2:02 pm 14:02 Cloudy 55 12.8 42 5.6 62 62 Calm 30.02 1017 10 16 0.00 0.00
2:53 pm 14:53 Cloudy 55 12.8 41 5 59 59 VRB 3 6 30.09 1019 10 16 0.00 0.00
3:53 pm 15:53 Mostly Cloudy 60 15.6 43 6.1 53 53 ENE 8 13 30.07 1018 10 16 0.00 0.00
4:53 pm 16:53 Partly Cloudy 59 15 42 5.6 54 54 NE 9 15 30.06 1018 10 16 0.00 0.00
5:53 pm 17:53 Mostly Cloudy 57 13.9 41 5 55 55 ESE 7 11 30.06 1018 10 16 0.00 0.00
6:53 pm 18:53 Sunny 57 13.9 40 4.4 53 53 ENE 10 17 30.05 1018 10 16 0.00 0.00
7:53 pm 19:53 Sunny 55 12.8 41 5 59 59 NE 12 19 30.06 1018 10 16 0.00 0.00
8:53 pm 20:53 Sunny 53 11.7 42 5.6 66 66 ENE 13 20 30.06 1018 10 16 0.00 0.00
9:53 pm 21:53 Mostly Cloudy 52 11.1 42 5.6 69 69 E 8 13 30.09 1019 10 16 0.00 0.00
10:53 pm 22:53 Cloudy 51 10.6 43 6.1 74 74 ENE 10 17 30.09 1019 10 16 0.00 0.00
11:53 pm 23:53 Cloudy 50 10 44 6.7 80 80 ENE 7 11 30.07 1018 10 16 0.00 0.00

Powered by AerisWeather